{"data":{"norad_id":66713,"intl_designator":"2025-276AZ","name":"FLOCK 4H-10","alt_names":[],"object_type":"PAYLOAD","status":"ACTIVE","operator":null,"country":"US","launch_date":"2025-11-28","launch_site_code":"AFWTR","launch_vehicle":null,"mission":null,"orbit_class":"UNKNOWN","rcs_meters":null,"size_class":null,"mass_kg":null,"dimensions":null,"purposes":["earth_obs"],"wikipedia_slug":null,"has_3d_model":false,"image_url":null,"decayed_at":null,"tle_current":{"epoch":"2026-09-19T00:07:07.835520Z","epoch_age_seconds":151181,"freshness":"FRESH","line1":"1 66713U 25276AZ  26262.00495180  .00004916  00000+0  22567-3 0  9994","line2":"2 66713  97.4111 333.9507 0005339  50.9819 309.1891 15.20856968 44672","mean_motion":15.20856968,"eccentricity":0.0005339,"inclination_deg":97.4111,"raan_deg":333.9507,"arg_perigee_deg":50.9819,"mean_anomaly_deg":309.1891,"bstar":0.00022567,"rev_number":4467,"period_min":94.68346006881,"perigee_km":499.5804203536,"apogee_km":506.92837008541,"semimajor_km":6881.3913952195,"source":"CELESTRAK","updated_at":"2026-09-20T09:00:34.749537Z"}}}